Home   Weather   Trondheim   Past weeks

Flag for Norway Past Weather in Trondheim, Norway — Yesterday and Last 2 Weeks

36 °F

Passing clouds.

Feels Like: 33 °F
Forecast: 44 / 50 °F
Wind: 3 mph from East

Location: Trondheim / Vaernes

Current Time: Oct 23, 2016 at 10:23:25 PM

Latest Report: Oct 23, 2016 at 9:50 PM

Visibility: N/A

Pressure: 30.45 "Hg

Humidity: 75%

Dew Point: 28 °F

Location of TrondheimLocation

Past Weather in Trondheim — Graph


Trondheim Temperature Yesterday

Maximum temperature yesterday: 45 °F (at 12:20 PM)
Minimum temperature yesterday: 32 °F (at 8:50 PM)
Average temperature yesterday: 39 °F

High & Low Weather Summary for the Past Weeks

High55 °F (Oct 18, 3:20 PM)100% (Oct 12, 8:50 PM)30.66 "Hg (Oct 12, 8:50 PM)
Low23 °F (Oct 13, 5:20 AM)34% (Oct 15, 1:50 PM)30.04 "Hg (Oct 18, 5:50 AM)
Average40 °F70%30.40 "Hg
* Reported Oct 8 8:20 PM — Oct 23 8:50 PM, Trondheim, Weather by CustomWeather, © 2016

Note: Actual official high and low records may vary slightly from our data, if they occured in-between our weather recording intervals... More about our weather records


Trondheim Weather History for the Previous 24 Hours

Scroll right to see more
Time TempWeatherWind HumidityBarometerVisibility
8:50 PM
Sun, Oct 23
37 °FPassing clouds.6 mph70%30.42 "HgN/A
8:20 PM39 °FPassing clouds.10 mph65%30.42 "HgN/A
7:50 PM39 °FClear.9 mph65%30.42 "Hg10 mi
7:20 PM39 °FClear.13 mph65%30.42 "Hg10 mi
6:50 PM41 °FClear.10 mph66%30.42 "Hg10 mi
6:20 PM41 °FClear.12 mph61%30.42 "Hg10 mi
5:50 PM41 °FClear.13 mph61%30.42 "Hg10 mi
5:20 PM41 °FPassing clouds.10 mph61%30.42 "HgN/A
4:50 PM43 °FPassing clouds.9 mph57%30.42 "HgN/A
4:20 PM43 °FPassing clouds.13 mph57%30.42 "HgN/A
3:50 PM45 °FPassing clouds.13 mph53%30.42 "HgN/A
3:20 PM45 °FPassing clouds.15 mph53%30.42 "HgN/A
2:50 PM45 °FPassing clouds.13 mph49%30.42 "HgN/A
2:20 PM45 °FPassing clouds.15 mph49%30.42 "HgN/A
1:50 PM43 °FPassing clouds.10 mph53%30.42 "HgN/A
1:20 PM43 °FPassing clouds.14 mph53%30.45 "HgN/A
12:50 PM43 °FScattered clouds.12 mph53%30.45 "HgN/A
12:20 PM41 °FScattered clouds.12 mph57%30.45 "HgN/A
11:50 AM41 °FPassing clouds.13 mph57%30.45 "HgN/A
11:20 AM39 °FSunny.12 mph61%30.45 "Hg10 mi
10:50 AM37 °FSunny.10 mph65%30.45 "Hg10 mi
10:20 AM36 °FSunny.9 mph70%30.45 "Hg10 mi
9:50 AM34 °FSunny.9 mph75%30.45 "Hg10 mi
9:20 AM30 °FSunny.8 mph86%30.45 "Hg10 mi
8:50 AM36 °FSunny.5 mph70%30.45 "Hg10 mi
7:50 AM37 °FClear.10 mph65%30.45 "Hg10 mi
7:20 AM37 °FPassing clouds.9 mph65%30.45 "HgN/A
6:50 AM39 °FPassing clouds.9 mph61%30.45 "HgN/A
6:20 AM39 °FClear.10 mph61%30.45 "Hg10 mi
5:50 AM37 °FClear.10 mph65%30.45 "Hg10 mi
5:20 AM39 °FClear.9 mph61%30.45 "Hg10 mi
4:50 AM37 °FClear.10 mph65%30.45 "Hg10 mi
4:20 AM36 °FClear.9 mph70%30.42 "Hg10 mi
3:50 AM37 °FClear.10 mph65%30.42 "Hg10 mi
2:50 AM37 °FClear.9 mph65%30.45 "Hg10 mi
2:20 AM37 °FClear.9 mph65%30.45 "Hg10 mi
1:50 AM37 °FClear.9 mph65%30.45 "Hg10 mi
1:20 AM36 °FPassing clouds.8 mph70%30.45 "HgN/A
12:50 AM37 °FPassing clouds.12 mph65%30.45 "HgN/A
12:20 AM34 °FPassing clouds.7 mph75%30.45 "HgN/A
11:50 PM
Sat, Oct 22
32 °FPassing clouds.6 mph75%30.48 "HgN/A
11:20 PM32 °FPassing clouds.6 mph75%30.48 "HgN/A
10:50 PM32 °FClear.8 mph75%30.48 "Hg10 mi
10:20 PM32 °FPassing clouds.6 mph75%30.48 "HgN/A
Weather by CustomWeather, © 2016

See weather overviewHow to use our weather pages